Regional Weather Roundup
Issued by NWS

Home | Current Version | Previous Version | Text Only | Print | Product List | Glossary On
Versions: 1 2 3 4 5 6 7 8 9 10 11 12 13 14 15 16 17 18 19 20 21 22 23 24 25 26 27 28 29 30 31 32 33 34 35 36 37 38 39 40 41 42 43 44 45 46 47 48 49 50
000
ASUS44 KOUN 170710
RWROK

WEATHER ROUNDUP FOR OKLAHOMA
NATIONAL WEATHER SERVICE NORMAN OK
100 AM CST TUE JAN 17 2017

NOTE: "FAIR" INDICATES FEW OR NO CLOUDS BELOW 12,000 FEET WITH NO
      SIGNIFICANT WEATHER AND/OR OBSTRUCTIONS TO VISIBILITY.

OKZ001>007-009>012-014-015-017-170800-
NORTHWEST OKLAHOMA AND THE PANHANDLE

CITY           SKY/WX    TMP DP  RH WIND       PRES   REMARKS
GAGE           CLOUDY    37  33  85 NW8       30.12F WCI  31
GUYMON         CLOUDY    35  33  92 NW9       30.14R WCI  28
ENID/WOODRING  MOCLDY    37  34  87 NW8       30.08S WCI  31
$$

OKZ016-021>023-033>039-044-045-170800-
SOUTHWEST OKLAHOMA

CITY           SKY/WX    TMP DP  RH WIND       PRES   REMARKS
LAWTON/REGL    PTCLDY    38  34  85 NW6       30.11F WCI  33
LAWTON/FT SILL CLOUDY    39  36  87 NW7       30.10S WCI  34
FREDERICK      CLOUDY    38  34  85 NW8       30.10F WCI  32
CLINTON        CLOUDY    39  33  79 NW15      30.14R WCI  31
HOBART         PTCLDY    38  34  85 N8        30.14S WCI  32
ALTUS AFB      CLEAR     37  32  84 N8        30.13F WCI  30
$$

OKZ018>020-024>031-170800-
CENTRAL OKLAHOMA

CITY           SKY/WX    TMP DP  RH WIND       PRES   REMARKS
OKLAHOMA CITY  PTCLDY    38  33  82 NW12      30.10R WCI  30
OKC/WILEY POST CLEAR     38  34  85 NW9       30.10R WCI  31
OKC/TINKER AFB CLEAR     39  33  81 NW13      30.07S WCI  31
STILLWATER     CLOUDY    38  33  82 NW10      30.07S WCI  31
GUTHRIE        CLOUDY    38  34  85 NW9       30.10R WCI  31
$$

OKZ008-013-054>072-170800-
NORTHEAST OKLAHOMA

CITY           SKY/WX    TMP DP  RH WIND       PRES   REMARKS
TULSA          CLOUDY    38  35  89 W7        30.07R WCI  33
TULSA/JONES    LGT RAIN  37  33  85 VRB3      30.07S
PONCA CITY     CLOUDY    38  33  82 W8        30.07S WCI  32
BARTLESVILLE   CLOUDY    40  34  79 W7        30.06F
MUSKOGEE       CLEAR     35  34  96 CALM      30.08S
$$

OKZ032-040>043-046>053-073>077-170800-
SOUTH CENTRAL/SOUTHEAST OKLAHOMA

CITY           SKY/WX    TMP DP  RH WIND       PRES   REMARKS
ARDMORE/DWNTWN CLOUDY    41  34  75 CALM      30.12R
MCALESTER      PTCLDY    40  33  76 CALM      30.08S
$$





USA.gov is the U.S. government's official web portal to all federal, state and local government web resources and services.